Bowling Green, KY

7:46 AM CDT on September 25, 2016 (GMT -0500)
Bowling Green-Warren County Regional

Weather History for KBWG - August, 2013

Change the Weather History Date:

Wednesday, August 7, 2013

  Actual Average Record
Temperature  
Mean Temperature 79 °F 78 °F  
Max Temperature 84 °F 90 °F 105 °F (1930)
Min Temperature 73 °F 67 °F 52 °F (2004)
Degree Days  
Heating Degree Days 0 0  
Month to date heating degree days 0 0  
Since 1 June heating degree days 0 5  
Since 1 July heating degree days 0 0  
Cooling Degree Days 14 13  
Month to date cooling degree days 74 92  
Year to date cooling degree days 977 973  
Since 1 June cooling degree days 764 820  
Growing Degree Days 28 (Base 50)    
Moisture  
Dew Point 72 °F    
Average Humidity 82    
Maximum Humidity 94    
Minimum Humidity 69    
Precipitation  
Precipitation T in 0.10 in 1.90 in (1923)
Month to date precipitation 0.01 0.68  
Year to date precipitation 36.58 30.91  
Snow  
Snow 0.00 in 0.00 in 0.00 in ()
Month to date snowfall 0.0 0.0  
Since 1 June snowfall 0.0 0.0  
Since 1 July snowfall 0.0 0.0  
Snow Depth 0.00 in    
Sea Level Pressure  
Sea Level Pressure 29.94 in    
Wind  
Wind Speed 7 mph (SSW)    
Max Wind Speed 12 mph    
Max Gust Speed 16 mph    
Visibility 10 miles    
Events      
T = Trace of Precipitation, MM = Missing Value Source: NWS Daily Summary

Daily Weather History Graph

Daily Weather History Graph

Search for Another Location

Airport or City:

Trip Planner

Search our weather history database for the weather conditions in past years. The results will help you decide how hot, cold, wet, or windy it might be!

Date:

Astronomy

Aug. 07, 2013 Rise Set
Actual Time 5:56 AM CDT 7:46 PM CDT
Civil Twilight 5:27 AM CDT 8:14 PM CDT
Nautical Twilight 4:53 AM CDT 8:48 PM CDT
Astronomical Twilight 4:17 AM CDT 9:24 PM CDT
Moon 6:41 AM CDT (8/7) 7:56 PM CDT (8/7)
Length of Visible Light 14h 46m
Length of Day
13h 50m
New Moon, 1% of the Moon is Illuminated
Aug 7
New Moon
Aug 14
First Quarter
Aug 20
Full
Aug 28
Last Quarter
Sep 5
New

Hourly Weather History & Observations

Time (CDT) Temp. Heat Index Dew Point Humidity Pressure Visibility Wind Dir Wind Speed Gust Speed Precip Events Conditions
12:53 AM 75.9 °F - 73.9 °F 94% 29.95 in 7.0 mi SW 3.5 mph - N/A   Overcast
1:53 AM 75.9 °F - 72.0 °F 87% 29.96 in 10.0 mi SW 3.5 mph - 0.00 in   Overcast
2:53 AM 73.9 °F - 72.0 °F 93% 29.94 in 10.0 mi SSE 3.5 mph - 0.00 in   Overcast
3:53 AM 73.9 °F - 72.0 °F 93% 29.92 in 7.0 mi Calm Calm - N/A   Overcast
4:53 AM 73.9 °F - 72.0 °F 93% 29.92 in 10.0 mi South 6.9 mph - N/A   Mostly Cloudy
5:53 AM 73.9 °F - 72.0 °F 93% 29.93 in 9.0 mi SSE 4.6 mph - N/A   Mostly Cloudy
6:48 AM 73.4 °F - 71.6 °F 94% 29.95 in 6.0 mi SSE 5.8 mph - N/A   Overcast
6:53 AM 73.9 °F - 72.0 °F 93% 29.94 in 7.0 mi SSE 4.6 mph - N/A   Overcast
7:02 AM 75.2 °F - 73.4 °F 94% 29.95 in 7.0 mi SSE 5.8 mph - N/A   Overcast
7:53 AM 75.9 °F - 73.9 °F 94% 29.95 in 8.0 mi South 4.6 mph - N/A   Mostly Cloudy
8:32 AM 78.8 °F - 73.4 °F 83% 29.97 in 9.0 mi South 8.1 mph - N/A   Mostly Cloudy
8:41 AM 78.8 °F - 73.4 °F 83% 29.98 in 10.0 mi SSW 10.4 mph - N/A   Overcast
8:53 AM 79.0 °F - 73.9 °F 84% 29.96 in 10.0 mi SSW 8.1 mph - N/A   Mostly Cloudy
9:41 AM 78.8 °F - 73.4 °F 83% 29.97 in 10.0 mi SSW 10.4 mph - N/A   Mostly Cloudy
9:53 AM 79.0 °F - 73.0 °F 82% 29.96 in 10.0 mi SW 10.4 mph - N/A   Overcast
10:53 AM 80.1 °F 84.2 °F 73.0 °F 79% 29.97 in 10.0 mi SW 8.1 mph - N/A   Mostly Cloudy
11:53 AM 82.9 °F 88.8 °F 73.0 °F 72% 29.95 in 10.0 mi SW 11.5 mph - N/A   Mostly Cloudy
12:21 PM 82.4 °F 88.2 °F 73.4 °F 74% 29.97 in 10.0 mi WSW 8.1 mph - N/A   Scattered Clouds
12:28 PM 82.4 °F 87.2 °F 71.6 °F 70% 29.97 in 10.0 mi WSW 9.2 mph - N/A   Mostly Cloudy
12:38 PM 84.2 °F 90.9 °F 73.4 °F 70% 29.96 in 10.0 mi WSW 6.9 mph - N/A   Scattered Clouds
12:45 PM 82.4 °F 87.2 °F 71.6 °F 70% 29.96 in 10.0 mi WSW 8.1 mph - N/A   Mostly Cloudy
12:53 PM 82.9 °F 88.0 °F 72.0 °F 69% 29.94 in 10.0 mi WSW 6.9 mph - N/A   Mostly Cloudy
1:04 PM 82.4 °F 87.2 °F 71.6 °F 70% 29.96 in 10.0 mi WSW 10.4 mph - N/A   Mostly Cloudy
1:32 PM 82.4 °F 87.2 °F 71.6 °F 70% 29.96 in 10.0 mi SW 4.6 mph - N/A   Scattered Clouds
1:53 PM 82.0 °F 86.7 °F 72.0 °F 71% 29.93 in 10.0 mi SSW 5.8 mph - N/A   Partly Cloudy
2:53 PM 82.0 °F 86.3 °F 71.1 °F 69% 29.92 in 10.0 mi WSW 4.6 mph - N/A   Scattered Clouds
3:12 PM 82.4 °F 88.2 °F 73.4 °F 74% 29.93 in 10.0 mi South 10.4 mph - N/A   Mostly Cloudy
3:21 PM 82.4 °F 88.2 °F 73.4 °F 74% 29.93 in 10.0 mi South 9.2 mph - N/A   Mostly Cloudy
3:53 PM 82.0 °F 87.4 °F 73.0 °F 74% 29.91 in 10.0 mi South 9.2 mph - N/A   Scattered Clouds
4:09 PM 82.4 °F 87.2 °F 71.6 °F 70% 29.93 in 10.0 mi SSW 9.2 mph - N/A   Mostly Cloudy
4:18 PM 82.4 °F 88.2 °F 73.4 °F 74% 29.92 in 10.0 mi South 10.4 mph - N/A   Scattered Clouds
4:53 PM 81.0 °F 84.9 °F 71.1 °F 72% 29.91 in 10.0 mi SW 10.4 mph - N/A   Clear
5:53 PM 82.9 °F 88.0 °F 72.0 °F 69% 29.91 in 10.0 mi SSW 9.2 mph - N/A   Overcast
6:53 PM 81.0 °F 85.2 °F 72.0 °F 74% 29.91 in 10.0 mi SSW 10.4 mph - N/A   Clear
7:53 PM 80.1 °F 83.6 °F 71.1 °F 74% 29.91 in 10.0 mi SSW 9.2 mph - N/A   Clear
8:53 PM 78.1 °F - 70.0 °F 76% 29.92 in 10.0 mi South 6.9 mph - N/A   Clear
9:53 PM 78.1 °F - 70.0 °F 76% 29.94 in 10.0 mi South 8.1 mph - N/A   Overcast
10:53 PM 77.0 °F - 70.0 °F 79% 29.94 in 10.0 mi South 5.8 mph - N/A   Overcast
11:15 PM 77.0 °F - 69.8 °F 78% 29.96 in 10.0 mi South 3.5 mph - N/A   Overcast
11:53 PM 75.9 °F - 71.1 °F 85% 29.95 in 10.0 mi Calm Calm - N/A   Overcast